Tracking 25195 objects as of 20-Jan-2022
HD Live streaming from Space Station
objects crossing your sky now

STARLINK-2042

Track STARLINK-2042 now!
10-day predictions
STARLINK-2042 is classified as:


NORAD ID: 47658
Int'l Code: 2021-012AQ
Perigee: 553.3 km
Apogee: 555.4 km
Inclination: 53.1 °
Period: 95.6 minutes
Semi major axis: 6925 km
RCS: Unknown
Launch date: February 16, 2021
Source: United States (US)
Launch site: AIR FORCE EASTERN TEST RANGE (AFETR)
aabbcc
Your satellite tracking list
Your tracking list is empty




NASA's NSSDC Master Catalog

Two Line Element Set (TLE):
1 47658U 21012AQ  22019.70602142  .00011341  00000-0  77894-3 0  9990
2 47658  53.0547  10.2014 0001524  65.2862 294.8285 15.06404413 52413
Source of the keplerian elements: AFSPC